"Pseudo-MPEC" for A10DMjY = A10DOip = ZTF0NUM
Created 2021 Dec 13 22:54:23 UT using Find_Orb
Click here for an explanation of pseudo-MPECs
Astrometry:
ZTF0NUM* C2021 11 14.25745403 23 53.80 +07 34 51.7 ~BEEH 16.35gUNEOCPI41
ZTF0NUM C2021 11 14.25780103 24 01.32 +07 35 43.4 ~BEEH 16.35gUNEOCPI41
ZTF0NUM C2021 11 14.29703703 37 36.91 +09 05 14.8 ~BEEH 16.57gUNEOCPI41
ZTF0NUM C2021 11 14.29738403 37 43.71 +09 06 00.0 ~BEEH 16.57gUNEOCPI41
A10DMjY* C2021 12 09.40001105 57 09.49 +18 34 04.3 ~CA2N 16.33oVNEOCPT08
A10DMjY C2021 12 09.41771206 01 38.58 +18 51 48.3 ~CA2N 16.32oVNEOCPT08
A10DMjY C2021 12 09.42048306 02 20.94 +18 54 28.5 ~CA2N 16.31oVNEOCPT08
A10DMjY C2021 12 09.42519006 03 32.64 +18 58 54.7 ~CA2N 16.29oVNEOCPT08
A10DMjY C2021 12 09.42657106 03 53.41 +19 00 10.7 ~CA2N 16.29oVNEOCPT08
A10DMjY C2021 12 09.43027206 04 49.62 +19 03 33.4 ~CA2N 16.40oVNEOCPT08
A10DMjY C2021 12 09.45159406 10 15.45 +19 21 51.6 ~CA2N 16.50oVNEOCPT08
A10DOip* C2021 12 13.42815905 16 09.60 +17 05 02.3 ~CDMe 15.61oVNEOCPT08
A10DOip C2021 12 13.43152205 17 01.02 +17 09 01.1 ~CDMe 15.85oVNEOCPT08
A10DOip C2021 12 13.46350305 25 03.50 +17 43 17.2 ~CDMe 15.79oVNEOCPT08
A10DOip C2021 12 13.47129505 26 59.64 +17 50 40.3 ~CDMe 15.83oVNEOCPT08
A10DOip C2021 12 13.49371405 32 34.65 +18 10 02.6 ~CDMe 15.65oVNEOCPT08
A10DOip C2021 12 13.49749805 33 31.29 +18 13 02.0 ~CDMe 15.78oVNEOCPT08
A10DOip C2021 12 13.50284105 34 51.56 +18 17 08.1 ~CDMe 15.72oVNEOCPT08
Station data:
(I41) Palomar Mountain--ZTF (N33.357340 W116.859780) US/California.
Observers B. T. Bolin, Z. T. F. Collaboration. Measurers B. T. Bolin,
Z.-Y. Lin, F. J. Masci. 1.2-m f/2.4 Schmidt.
(T08) ATLAS-MLO, Mauna Loa (N19.536152 W155.576050) US/Hawaii. Observers
L. Denneau, A. Heinze, H. Weiland, J. Tonry, H. Flewelling, A.
Fitzsimmons, D. Young, B. Stalder. Measurers L. Denneau, A. Heinze, J.
Tonry. 0.5-m f/2.0 Schmidt + CCD.
Orbital elements: A10DMjY = A10DOip = ZTF0NUM
Perigee 2021 Dec 13.021193 +/- 0.000543 TT = 0:30:31.0 (JD 2459561.521193)
A1: 1.24e-5 +/- 5.02e-8 A2: -3.74e-7 +/- 1.9e-8 A3: 4.15e-7 +/- 9.67e-9 AU/day^2 [1/r^2]
Epoch 2021 Dec 13.0 TT = JDT 2459561.5 Find_Orb
M 352.598696026 +/- 0.18 (J2000 equator)
n 349.229877636 +/- 0.00319 Peri. 245.257166 +/- 0.038
a 43105.15836 +/- 0.262 Node 24.779835 +/- 0.008
e 0.71703421 +/- 0.000133 Incl. 20.925060 +/- 0.0023
P1484.38m/1.031d H 32.5 G 0.15 U 8.9
q 12197.28490 +/- 5.78 Q 74013.03182 +/- 5.49
From 18 observations 2021 Nov. 14-Dec. 13; mean residual 5".163
